Location: Central Coast NSW, Australia
(33.2407°S, 151.4316°E)
Time: 16:52:12
(UTC+11:00)

ISS - Pass Details

Date: 30 January 2019
Orbit: 403 x 411 km, 51.6° (Epoch: 21 February)

Event Time Altitude Azimuth Distance (km) Brightness Sun altitude
Exits shadow 04:57:21 26° 263° (W) 866 -2.6 -15.1°
Maximum altitude 04:58:35 35° 219° (SW) 692 -2.7 -14.8°
Drops below altitude 10° 05:01:41 10° 151° (SSE) 1,485 0.0 -14.3°
Sets 05:03:55 0° 141° (SE) 2,360 1.5 -13.9°
